Regional Weather Roundup
Issued by NWS

Home | Current Version | Previous Version | Graphics & Text | Print | Product List | Glossary On
Versions: 1 2 3 4 5 6 7 8 9 10 11 12 13 14 15 16 17 18 19 20 21 22 23 24 25 26 27 28 29 30 31 32 33 34 35 36 37 38 39 40 41 42 43 44 45 46 47 48 49 50
000
ASUS43 KLMK 211310
RWRKY
KENTUCKY REGIONAL WEATHER ROUNDUP
NATIONAL WEATHER SERVICE LOUISVILLE KY
900 AM EDT THU SEP 21 2017

NOTE "FAIR" INDICATES FEW OR NO CLOUDS BELOW 12,000 FEET
WITH NO SIGNIFICANT WEATHER AND/OR OBSTRUCTIONS TO VISIBILITY.

KYZ001>023-026-027-061>063-070>075-211400-
WESTERN AND SOUTH CENTRAL KENTUCKY

CITY           SKY/WX    TMP DP  RH WIND       PRES   REMARKS
PADUCAH        SUNNY     74  70  87 CALM      30.05S FOG
HENDERSON      SUNNY     74  72  93 CALM      30.07R
OWENSBORO      SUNNY     75  71  87 S6        30.07S
HOPKINSVILLE   SUNNY     73  71  92 CALM      30.08R
BOWLING GREEN  MOSUNNY   71  69  93 CALM      30.10R
GLASGOW        SUNNY    N/A N/A N/A CALM      30.11R
$$

KYZ024-025-028>034-038-045-046-053-211400-
NORTH CENTRAL KENTUCKY

CITY           SKY/WX    TMP DP  RH WIND       PRES   REMARKS
LOUISVILLE/SDF MOSUNNY   73  69  87 SE5       30.10R
LOUISVILLE/LOU SUNNY     73  72  96 E3        30.11R
FORT KNOX      SUNNY     70  70 100 E3        30.10R
$$

KYZ035>037-039>044-047>052-055>060-089>105-211400-
NORTHEAST KENTUCKY

CITY           SKY/WX    TMP DP  RH WIND       PRES   REMARKS
LEXINGTON      SUNNY     72  68  87 CALM      30.13R
COVINGTON      MOSUNNY   72  71  97 CALM      30.11S
FRANKFORT      SUNNY     71  66  84 CALM      30.11R HAZE
$$

KYZ054-064>069-076>088-106>120-211400-
SOUTHEAST KENTUCKY

CITY           SKY/WX    TMP DP  RH WIND       PRES   REMARKS
JACKSON        SUNNY     70  66  87 CALM      30.15R
LONDON         SUNNY     68  65  90 CALM      30.14R
SOMERSET       SUNNY     64  64 100 CALM      30.15R
MIDDLESBORO    FOG       64  64 100 CALM      30.16R VSB 1/4
MONTICELLO     SUNNY     67  66  97 CALM      30.15R
$$





USA.gov is the U.S. government's official web portal to all federal, state and local government web resources and services.